Location: Mat�lon
(46.2791°N, 7.1028°E)
Time: 01:06:21
(UTC+00:00)

Cosmos 372 Rocket - Pass Details

Date: 18 September 2020
Orbit: 739 x 767 km, 74.1° (Epoch: 31 October)

Event Time Altitude Azimuth Distance (km) Brightness Sun altitude
Rises 18:42:49 0° 185° (S) 3,221 7.1 -12.1°
Reaches altitude 10° 18:45:14 10° 181° (S) 2,299 6.3 -12.5°
Maximum altitude 18:50:17 52° 106° (ESE) 943 4.1 -13.4°
Drops below altitude 10° 18:55:21 10° 31° (NNE) 2,305 6.3 -14.2°
Sets 18:57:46 0° 26° (NNE) 3,231 7.2 -14.6°
